Time,TemperatureF,DewpointF,PressureIn,WindDirection,WindDirectionDegrees,WindSpeedMPH,WindSpeedGustMPH,Humidity,HourlyPrecipIn,Conditions,Clouds,dailyrainin,SoftwareType,DateUTC
2013-09-08 00:00:00,73.7,45.1,29.90,SE,139,0.0,0.0,36,0.00,,,0.00,Wunderground v.1.15,2013-09-08 06:00:00,
2013-09-08 00:10:00,73.6,45.0,29.90,SE,135,1.0,1.0,36,0.00,,,0.00,Wunderground v.1.15,2013-09-08 06:10:00,
2013-09-08 00:20:00,73.9,45.3,29.90,ESE,120,2.0,2.0,36,0.00,,,0.00,Wunderground v.1.15,2013-09-08 06:20:00,
2013-09-08 00:30:00,74.1,44.7,29.90,SE,134,2.0,2.0,35,0.00,,,0.00,Wunderground v.1.15,2013-09-08 06:30:00,
2013-09-08 00:35:00,74.0,44.6,29.90,SE,130,2.0,2.0,35,0.00,,,0.00,Wunderground v.1.15,2013-09-08 06:35:00,
2013-09-08 00:45:00,73.6,44.2,29.90,SE,134,1.0,1.0,35,0.00,,,0.00,Wunderground v.1.15,2013-09-08 06:45:00,
2013-09-08 00:55:00,73.4,45.5,29.90,SSE,153,1.0,1.0,37,0.00,,,0.00,Wunderground v.1.15,2013-09-08 06:55:00,
2013-09-08 01:00:00,72.7,44.9,29.90,SE,136,0.0,0.0,37,0.00,,,0.00,Wunderground v.1.15,2013-09-08 07:00:00,
2013-09-08 01:10:00,71.2,45.6,29.90,SE,136,0.0,0.0,40,0.00,,,0.00,Wunderground v.1.15,2013-09-08 07:10:00,
2013-09-08 01:15:00,70.4,46.2,29.90,SE,136,0.0,0.0,42,0.00,,,0.00,Wunderground v.1.15,2013-09-08 07:15:00,
2013-09-08 01:25:00,69.3,47.0,29.90,SE,136,0.0,0.0,45,0.00,,,0.00,Wunderground v.1.15,2013-09-08 07:25:00,
2013-09-08 01:35:00,68.5,47.5,29.90,SE,132,0.0,0.0,47,0.00,,,0.00,Wunderground v.1.15,2013-09-08 07:35:00,
2013-09-08 01:45:00,68.1,46.5,29.90,SE,132,0.0,0.0,46,0.00,,,0.00,Wunderground v.1.15,2013-09-08 07:45:00,
2013-09-08 01:55:00,67.9,46.9,29.90,SE,142,0.0,0.0,47,0.00,,,0.00,Wunderground v.1.15,2013-09-08 07:55:00,
2013-09-08 02:00:00,67.8,47.4,29.90,SE,142,0.0,0.0,48,0.00,,,0.00,Wunderground v.1.15,2013-09-08 08:00:00,
2013-09-08 02:10:00,68.4,46.8,29.90,SE,141,1.0,4.0,46,0.00,,,0.00,Wunderground v.1.15,2013-09-08 08:10:00,
2013-09-08 02:20:00,69.2,45.7,29.90,SE,129,2.0,2.0,43,0.00,,,0.00,Wunderground v.1.15,2013-09-08 08:20:00,
2013-09-08 02:30:00,69.4,45.9,29.90,SE,131,2.0,2.0,43,0.00,,,0.00,Wunderground v.1.15,2013-09-08 08:30:00,
2013-09-08 02:35:00,69.4,45.3,29.90,ESE,121,1.0,2.0,42,0.00,,,0.00,Wunderground v.1.15,2013-09-08 08:35:00,
2013-09-08 02:45:00,68.9,45.5,29.90,ESE,121,0.0,0.0,43,0.00,,,0.00,Wunderground v.1.15,2013-09-08 08:45:00,
2013-09-08 02:55:00,68.6,45.2,29.90,ESE,120,0.0,0.0,43,0.00,,,0.00,Wunderground v.1.15,2013-09-08 08:55:00,
2013-09-08 03:00:00,68.4,45.0,29.90,ESE,120,0.0,0.0,43,0.00,,,0.00,Wunderground v.1.15,2013-09-08 09:00:00,
2013-09-08 03:10:00,68.2,45.4,29.90,ESE,120,0.0,0.0,44,0.00,,,0.00,Wunderground v.1.15,2013-09-08 09:10:00,
2013-09-08 03:15:00,68.0,45.9,29.90,ESE,120,0.0,0.0,45,0.00,,,0.00,Wunderground v.1.15,2013-09-08 09:15:00,
2013-09-08 03:25:00,67.3,46.9,29.89,ESE,120,0.0,0.0,48,0.00,,,0.00,Wunderground v.1.15,2013-09-08 09:25:00,
2013-09-08 03:35:00,66.6,47.4,29.90,ESE,122,0.0,0.0,50,0.00,,,0.00,Wunderground v.1.15,2013-09-08 09:35:00,
2013-09-08 03:45:00,66.2,47.5,29.89,ESE,121,0.0,0.0,51,0.00,,,0.00,Wunderground v.1.15,2013-09-08 09:45:00,
2013-09-08 03:55:00,65.2,47.6,29.89,ESE,118,0.0,0.0,53,0.00,,,0.00,Wunderground v.1.15,2013-09-08 09:55:00,
2013-09-08 04:00:00,64.9,47.4,29.89,ESE,119,0.0,0.0,53,0.00,,,0.00,Wunderground v.1.15,2013-09-08 10:00:00,
2013-09-08 04:10:00,64.3,48.3,29.89,ESE,119,0.0,0.0,56,0.00,,,0.00,Wunderground v.1.15,2013-09-08 10:10:00,
2013-09-08 04:20:00,63.7,46.7,29.90,ESE,118,0.0,0.0,54,0.00,,,0.00,Wunderground v.1.15,2013-09-08 10:20:00,
2013-09-08 04:30:00,63.7,48.6,29.90,SSE,147,0.0,1.0,58,0.00,,,0.00,Wunderground v.1.15,2013-09-08 10:30:00,
2013-09-08 04:40:00,63.9,48.4,29.89,SSE,148,0.0,1.0,57,0.00,,,0.00,Wunderground v.1.15,2013-09-08 10:40:00,
2013-09-08 04:50:00,63.6,48.5,29.89,SSE,148,0.0,0.0,58,0.00,,,0.00,Wunderground v.1.15,2013-09-08 10:50:00,
2013-09-08 05:00:00,63.4,48.4,29.89,SSE,148,0.0,0.0,58,0.00,,,0.00,Wunderground v.1.15,2013-09-08 11:00:00,
2013-09-08 05:10:00,62.8,48.7,29.89,SSE,148,0.0,0.0,60,0.00,,,0.00,Wunderground v.1.15,2013-09-08 11:10:00,
2013-09-08 05:15:00,62.7,48.6,29.89,SSE,148,0.0,0.0,60,0.00,,,0.00,Wunderground v.1.15,2013-09-08 11:15:00,
2013-09-08 05:25:00,62.2,48.6,29.89,SSE,148,0.0,0.0,61,0.00,,,0.00,Wunderground v.1.15,2013-09-08 11:25:00,
2013-09-08 05:35:00,61.9,48.7,29.89,SSE,148,0.0,0.0,62,0.00,,,0.00,Wunderground v.1.15,2013-09-08 11:35:00,
2013-09-08 05:45:00,61.5,48.8,29.89,SSE,148,0.0,0.0,63,0.00,,,0.00,Wunderground v.1.15,2013-09-08 11:45:00,
2013-09-08 05:55:00,61.1,48.8,29.89,SSE,148,0.0,0.0,64,0.00,,,0.00,Wunderground v.1.15,2013-09-08 11:55:00,
2013-09-08 06:00:00,61.1,48.4,29.89,SSE,148,0.0,0.0,63,0.00,,,0.00,Wunderground v.1.15,2013-09-08 12:00:00,
2013-09-08 06:10:00,61.0,49.1,29.89,SSE,148,0.0,0.0,65,0.00,,,0.00,Wunderground v.1.15,2013-09-08 12:10:00,
2013-09-08 06:20:00,61.1,48.8,29.89,SSE,148,0.0,0.0,64,0.00,,,0.00,Wunderground v.1.15,2013-09-08 12:20:00,
2013-09-08 06:30:00,60.5,48.3,29.89,SSE,148,0.0,0.0,64,0.00,,,0.00,Wunderground v.1.15,2013-09-08 12:30:00,
2013-09-08 06:40:00,60.4,48.6,29.90,SSE,148,0.0,0.0,65,0.00,,,0.00,Wunderground v.1.15,2013-09-08 12:40:00,
2013-09-08 06:45:00,60.6,48.8,29.90,SSE,148,0.0,0.0,65,0.00,,,0.00,Wunderground v.1.15,2013-09-08 12:45:00,
2013-09-08 06:55:00,60.5,49.1,29.90,SSE,148,0.0,0.0,66,0.00,,,0.00,Wunderground v.1.15,2013-09-08 12:55:00,
2013-09-08 07:00:00,60.4,49.4,29.90,SSE,148,0.0,0.0,67,0.00,,,0.00,Wunderground v.1.15,2013-09-08 13:00:00,
2013-09-08 07:10:00,61.0,49.6,29.90,SE,145,0.0,0.0,66,0.00,,,0.00,Wunderground v.1.15,2013-09-08 13:10:00,
2013-09-08 07:20:00,61.0,49.6,29.91,SE,145,0.0,0.0,66,0.00,,,0.00,Wunderground v.1.15,2013-09-08 13:20:00,
2013-09-08 07:30:00,61.1,50.1,29.91,SE,145,0.0,0.0,67,0.00,,,0.00,Wunderground v.1.15,2013-09-08 13:30:00,
2013-09-08 07:40:00,61.6,50.1,29.91,SE,145,0.0,0.0,66,0.00,,,0.00,Wunderground v.1.15,2013-09-08 13:40:00,
2013-09-08 07:50:00,62.3,50.8,29.91,SE,145,0.0,0.0,66,0.00,,,0.00,Wunderground v.1.15,2013-09-08 13:50:00,
2013-09-08 08:00:00,63.6,50.8,29.91,SE,145,0.0,0.0,63,0.00,,,0.00,Wunderground v.1.15,2013-09-08 14:00:00,
2013-09-08 08:10:00,64.9,50.7,29.91,SE,145,0.0,0.0,60,0.00,,,0.00,Wunderground v.1.15,2013-09-08 14:10:00,
2013-09-08 08:15:00,65.8,50.6,29.91,SSE,149,0.0,0.0,58,0.00,,,0.00,Wunderground v.1.15,2013-09-08 14:15:00,
2013-09-08 08:25:00,66.7,50.0,29.92,SSE,149,0.0,0.0,55,0.00,,,0.00,Wunderground v.1.15,2013-09-08 14:25:00,
2013-09-08 08:35:00,67.6,48.3,29.92,SSE,150,0.0,0.0,50,0.00,,,0.00,Wunderground v.1.15,2013-09-08 14:35:00,
2013-09-08 08:45:00,68.9,49.5,29.92,WSW,238,0.0,0.0,50,0.00,,,0.00,Wunderground v.1.15,2013-09-08 14:45:00,
2013-09-08 08:55:00,69.6,49.6,29.92,West,262,0.0,0.0,49,0.00,,,0.00,Wunderground v.1.15,2013-09-08 14:55:00,
2013-09-08 09:00:00,70.0,50.0,29.92,WNW,288,0.0,1.0,49,0.00,,,0.00,Wunderground v.1.15,2013-09-08 15:00:00,
2013-09-08 09:10:00,70.9,50.8,29.92,WSW,246,1.0,1.0,49,0.00,,,0.00,Wunderground v.1.15,2013-09-08 15:10:00,
2013-09-08 09:20:00,71.8,50.5,29.91,NNW,339,1.0,1.0,47,0.00,,,0.00,Wunderground v.1.15,2013-09-08 15:20:00,
2013-09-08 09:30:00,72.9,49.7,29.91,West,259,0.0,0.0,44,0.00,,,0.00,Wunderground v.1.15,2013-09-08 15:30:00,
2013-09-08 09:40:00,74.3,49.1,29.91,NW,307,0.0,1.0,41,0.00,,,0.00,Wunderground v.1.15,2013-09-08 15:40:00,
2013-09-08 09:50:00,74.9,49.6,29.91,West,260,1.0,1.0,41,0.00,,,0.00,Wunderground v.1.15,2013-09-08 15:50:00,
2013-09-08 10:00:00,75.9,49.2,29.91,West,265,1.0,1.0,39,0.00,,,0.00,Wunderground v.1.15,2013-09-08 16:00:00,
2013-09-08 10:10:00,76.5,49.0,29.91,NNW,339,1.0,2.0,38,0.00,,,0.00,Wunderground v.1.15,2013-09-08 16:10:00,
2013-09-08 10:15:00,76.7,48.5,29.91,NW,316,1.0,2.0,37,0.00,,,0.00,Wunderground v.1.15,2013-09-08 16:15:00,
2013-09-08 10:25:00,77.6,49.3,29.90,SSE,155,1.0,2.0,37,0.00,,,0.00,Wunderground v.1.15,2013-09-08 16:25:00,
2013-09-08 10:35:00,78.0,48.9,29.90,SW,225,1.0,3.0,36,0.00,,,0.00,Wunderground v.1.15,2013-09-08 16:35:00,
2013-09-08 10:50:00,79.4,48.6,29.90,NW,304,1.0,2.0,34,0.00,,,0.00,Wunderground v.1.15,2013-09-08 16:50:00,
2013-09-08 10:55:00,79.0,47.4,29.90,NW,311,2.0,4.0,33,0.00,,,0.00,Wunderground v.1.15,2013-09-08 16:55:00,
2013-09-08 11:00:00,78.9,48.1,29.89,SSW,201,2.0,2.0,34,0.00,,,0.00,Wunderground v.1.15,2013-09-08 17:00:00,
2013-09-08 11:10:00,79.4,49.4,29.89,West,278,2.0,4.0,35,0.00,,,0.00,Wunderground v.1.15,2013-09-08 17:10:00,
2013-09-08 11:20:00,79.7,49.6,29.89,SW,229,3.0,3.0,35,0.00,,,0.00,Wunderground v.1.15,2013-09-08 17:20:00,
2013-09-08 11:30:00,81.5,49.6,29.88,South,180,1.0,2.0,33,0.00,,,0.00,Wunderground v.1.15,2013-09-08 17:30:00,
2013-09-08 11:40:00,81.9,50.0,29.88,South,174,1.0,2.0,33,0.00,,,0.00,Wunderground v.1.15,2013-09-08 17:40:00,
2013-09-08 11:45:00,81.6,48.9,29.88,West,274,1.0,2.0,32,0.00,,,0.00,Wunderground v.1.15,2013-09-08 17:45:00,
2013-09-08 11:55:00,82.1,50.1,29.87,WSW,239,2.0,4.0,33,0.00,,,0.00,Wunderground v.1.15,2013-09-08 17:55:00,
2013-09-08 12:00:00,82.6,50.6,29.87,SSW,211,2.0,2.0,33,0.00,,,0.00,Wunderground v.1.15,2013-09-08 18:00:00,
2013-09-08 12:10:00,83.3,49.5,29.86,WNW,283,1.0,2.0,31,0.00,,,0.00,Wunderground v.1.15,2013-09-08 18:10:00,
2013-09-08 12:20:00,83.2,49.4,29.86,NNW,348,2.0,2.0,31,0.00,,,0.00,Wunderground v.1.15,2013-09-08 18:20:00,
2013-09-08 12:30:00,82.6,49.7,29.85,NNW,333,2.0,4.0,32,0.00,,,0.00,Wunderground v.1.15,2013-09-08 18:30:00,
2013-09-08 12:40:00,82.9,49.2,29.85,SSE,155,2.0,2.0,31,0.00,,,0.00,Wunderground v.1.15,2013-09-08 18:40:00,
2013-09-08 12:50:00,84.0,50.1,29.84,ENE,67,2.0,2.0,31,0.00,,,0.00,Wunderground v.1.15,2013-09-08 18:50:00,
2013-09-08 13:00:00,83.6,49.8,29.84,SW,222,3.0,5.0,31,0.00,,,0.00,Wunderground v.1.15,2013-09-08 19:00:00,
2013-09-08 13:10:00,84.0,49.2,29.84,SW,236,2.0,2.0,30,0.00,,,0.00,Wunderground v.1.15,2013-09-08 19:10:00,
2013-09-08 13:20:00,84.7,49.8,29.83,SSW,198,2.0,2.0,30,0.00,,,0.00,Wunderground v.1.15,2013-09-08 19:20:00,
2013-09-08 13:30:00,85.3,49.4,29.82,SE,129,2.0,2.0,29,0.00,,,0.00,Wunderground v.1.15,2013-09-08 19:30:00,
2013-09-08 13:40:00,85.5,48.7,29.81,WNW,302,2.0,2.0,28,0.00,,,0.00,Wunderground v.1.15,2013-09-08 19:40:00,
2013-09-08 13:45:00,85.9,50.0,29.81,WSW,252,2.0,2.0,29,0.00,,,0.00,Wunderground v.1.15,2013-09-08 19:45:00,
2013-09-08 13:55:00,87.0,49.0,29.81,ESE,116,2.0,3.0,27,0.00,,,0.00,Wunderground v.1.15,2013-09-08 19:55:00,
2013-09-08 14:00:00,87.3,47.2,29.80,South,188,2.0,2.0,25,0.00,,,0.00,Wunderground v.1.15,2013-09-08 20:00:00,
2013-09-08 14:10:00,88.1,47.9,29.80,SSW,197,2.0,3.0,25,0.00,,,0.00,Wunderground v.1.15,2013-09-08 20:10:00,
2013-09-08 14:20:00,86.8,47.8,29.79,SSE,165,4.0,5.0,26,0.00,,,0.00,Wunderground v.1.15,2013-09-08 20:20:00,
2013-09-08 14:30:00,87.1,49.1,29.79,South,172,4.0,4.0,27,0.00,,,0.00,Wunderground v.1.15,2013-09-08 20:30:00,
2013-09-08 14:40:00,87.0,49.0,29.78,East,100,2.0,3.0,27,0.00,,,0.00,Wunderground v.1.15,2013-09-08 20:40:00,
2013-09-08 14:50:00,87.6,48.5,29.77,WSW,252,3.0,3.0,26,0.00,,,0.00,Wunderground v.1.15,2013-09-08 20:50:00,
2013-09-08 15:00:00,88.3,49.1,29.77,SSE,152,2.0,9.0,26,0.00,,,0.00,Wunderground v.1.15,2013-09-08 21:00:00,
2013-09-08 15:10:00,87.9,47.7,29.76,North,353,3.0,3.0,25,0.00,,,0.00,Wunderground v.1.15,2013-09-08 21:10:00,
2013-09-08 15:20:00,87.5,47.3,29.75,WSW,257,4.0,4.0,25,0.00,,,0.00,Wunderground v.1.15,2013-09-08 21:20:00,
2013-09-08 15:30:00,88.4,49.2,29.75,SSW,207,3.0,3.0,26,0.00,,,0.00,Wunderground v.1.15,2013-09-08 21:30:00,
2013-09-08 15:40:00,89.1,49.7,29.74,South,176,2.0,3.0,26,0.00,,,0.00,Wunderground v.1.15,2013-09-08 21:40:00,
2013-09-08 15:45:00,88.9,48.5,29.74,SSW,198,4.0,4.0,25,0.00,,,0.00,Wunderground v.1.15,2013-09-08 21:45:00,
2013-09-08 15:55:00,88.7,49.4,29.74,SSE,153,3.0,5.0,26,0.00,,,0.00,Wunderground v.1.15,2013-09-08 21:55:00,
2013-09-08 16:00:00,88.7,49.4,29.73,ESE,111,4.0,4.0,26,0.00,,,0.00,Wunderground v.1.15,2013-09-08 22:00:00,
2013-09-08 16:10:00,88.5,48.2,29.73,SE,131,4.0,4.0,25,0.00,,,0.00,Wunderground v.1.15,2013-09-08 22:10:00,
2013-09-08 16:20:00,89.2,48.8,29.72,WNW,300,2.0,2.0,25,0.00,,,0.00,Wunderground v.1.15,2013-09-08 22:20:00,
2013-09-08 16:25:00,88.5,49.2,29.72,West,263,2.0,5.0,26,0.00,,,0.00,Wunderground v.1.15,2013-09-08 22:25:00,
2013-09-08 16:35:00,88.8,49.5,29.71,SSE,150,2.0,3.0,26,0.00,,,0.00,Wunderground v.1.15,2013-09-08 22:35:00,
2013-09-08 16:45:00,88.2,47.9,29.72,SE,135,2.0,4.0,25,0.00,,,0.00,Wunderground v.1.15,2013-09-08 22:45:00,
2013-09-08 16:55:00,85.6,48.8,29.72,ESE,118,7.0,8.0,28,0.00,,,0.00,Wunderground v.1.15,2013-09-08 22:55:00,
2013-09-08 17:00:00,84.0,50.1,29.73,SE,128,7.0,7.0,31,0.00,,,0.00,Wunderground v.1.15,2013-09-08 23:00:00,
2013-09-08 17:10:00,81.9,51.6,29.72,ESE,111,4.0,4.0,35,0.00,,,0.00,Wunderground v.1.15,2013-09-08 23:10:00,
2013-09-08 17:20:00,80.9,49.9,29.72,NW,326,2.0,2.0,34,0.00,,,0.00,Wunderground v.1.15,2013-09-08 23:20:00,
2013-09-08 17:30:00,79.9,50.6,29.71,NNW,342,3.0,3.0,36,0.00,,,0.00,Wunderground v.1.15,2013-09-08 23:30:00,
2013-09-08 17:40:00,80.5,49.5,29.71,SSE,160,1.0,1.0,34,0.00,,,0.00,Wunderground v.1.15,2013-09-08 23:40:00,
2013-09-08 17:45:00,80.7,49.7,29.70,WNW,286,1.0,1.0,34,0.00,,,0.00,Wunderground v.1.15,2013-09-08 23:45:00,
2013-09-08 17:55:00,81.2,48.5,29.71,West,281,1.0,2.0,32,0.00,,,0.00,Wunderground v.1.15,2013-09-08 23:55:00,
2013-09-08 18:00:00,81.5,47.9,29.71,NNE,18,1.0,1.0,31,0.00,,,0.00,Wunderground v.1.15,2013-09-09 00:00:00,
2013-09-08 18:10:00,82.0,48.4,29.71,North,1,1.0,1.0,31,0.00,,,0.00,Wunderground v.1.15,2013-09-09 00:10:00,
2013-09-08 18:20:00,82.7,50.7,29.71,North,360,0.0,0.0,33,0.00,,,0.00,Wunderground v.1.15,2013-09-09 00:20:00,
2013-09-08 18:25:00,82.9,50.0,29.71,North,4,0.0,0.0,32,0.00,,,0.00,Wunderground v.1.15,2013-09-09 00:25:00,
2013-09-08 18:35:00,82.9,50.0,29.71,North,6,0.0,0.0,32,0.00,,,0.00,Wunderground v.1.15,2013-09-09 00:35:00,
2013-09-08 18:45:00,82.3,49.5,29.71,NNE,12,0.0,0.0,32,0.00,,,0.00,Wunderground v.1.15,2013-09-09 00:45:00,
2013-09-08 18:55:00,81.8,49.1,29.71,East,85,0.0,1.0,32,0.00,,,0.00,Wunderground v.1.15,2013-09-09 00:55:00,
2013-09-08 19:00:00,81.8,49.1,29.71,East,94,0.0,1.0,32,0.00,,,0.00,Wunderground v.1.15,2013-09-09 01:00:00,
2013-09-08 19:10:00,81.5,49.6,29.71,ENE,67,0.0,0.0,33,0.00,,,0.00,Wunderground v.1.15,2013-09-09 01:10:00,
2013-09-08 19:20:00,80.8,49.8,29.71,ENE,68,0.0,0.0,34,0.00,,,0.00,Wunderground v.1.15,2013-09-09 01:20:00,
2013-09-08 19:30:00,80.5,49.5,29.72,East,100,1.0,1.0,34,0.00,,,0.00,Wunderground v.1.15,2013-09-09 01:30:00,
2013-09-08 19:40:00,81.0,48.4,29.72,ESE,115,2.0,5.0,32,0.00,,,0.00,Wunderground v.1.15,2013-09-09 01:40:00,
2013-09-08 19:45:00,81.2,49.4,29.73,SW,214,3.0,5.0,33,0.00,,,0.00,Wunderground v.1.15,2013-09-09 01:45:00,
2013-09-08 19:55:00,79.1,50.6,29.74,South,172,3.0,3.0,37,0.00,,,0.00,Wunderground v.1.15,2013-09-09 01:55:00,
2013-09-08 20:00:00,78.3,51.3,29.74,West,264,3.0,4.0,39,0.00,,,0.00,Wunderground v.1.15,2013-09-09 02:00:00,
2013-09-08 20:10:00,77.0,50.8,29.74,SW,219,3.0,6.0,40,0.00,,,0.00,Wunderground v.1.15,2013-09-09 02:10:00,
2013-09-08 20:20:00,76.4,51.0,29.75,SSW,198,3.0,4.0,41,0.00,,,0.00,Wunderground v.1.15,2013-09-09 02:20:00,
2013-09-08 20:30:00,75.8,51.1,29.76,SE,145,3.0,4.0,42,0.00,,,0.00,Wunderground v.1.15,2013-09-09 02:30:00,
2013-09-08 20:40:00,75.5,50.8,29.77,WSW,248,3.0,3.0,42,0.00,,,0.00,Wunderground v.1.15,2013-09-09 02:40:00,
2013-09-08 20:50:00,75.0,51.0,29.77,SSW,212,1.0,1.0,43,0.00,,,0.00,Wunderground v.1.15,2013-09-09 02:50:00,
2013-09-08 21:00:00,74.7,51.3,29.78,South,181,1.0,1.0,44,0.00,,,0.00,Wunderground v.1.15,2013-09-09 03:00:00,
2013-09-08 21:10:00,74.3,51.6,29.79,SE,141,1.0,3.0,45,0.00,,,0.00,Wunderground v.1.15,2013-09-09 03:10:00,
2013-09-08 21:15:00,74.3,52.2,29.80,East,98,2.0,3.0,46,0.00,,,0.00,Wunderground v.1.15,2013-09-09 03:15:00,
2013-09-08 21:25:00,73.7,52.2,29.80,SW,235,4.0,4.0,47,0.00,,,0.00,Wunderground v.1.15,2013-09-09 03:25:00,
2013-09-08 21:35:00,73.1,52.2,29.81,SW,219,3.0,4.0,48,0.00,,,0.00,Wunderground v.1.15,2013-09-09 03:35:00,
2013-09-08 21:45:00,72.1,51.9,29.81,West,269,2.0,3.0,49,0.00,,,0.00,Wunderground v.1.15,2013-09-09 03:45:00,
2013-09-08 21:55:00,71.7,52.1,29.81,WSW,250,1.0,1.0,50,0.00,,,0.00,Wunderground v.1.15,2013-09-09 03:55:00,
2013-09-08 22:00:00,71.5,51.9,29.81,South,190,0.0,0.0,50,0.00,,,0.00,Wunderground v.1.15,2013-09-09 04:00:00,
2013-09-08 22:05:00,71.3,51.7,29.81,South,191,0.0,0.0,50,0.00,,,0.00,Wunderground v.1.15,2013-09-09 04:05:00,
2013-09-08 22:15:00,71.0,52.0,29.81,SE,128,0.0,0.0,51,0.00,,,0.00,Wunderground v.1.15,2013-09-09 04:15:00,
2013-09-08 22:25:00,70.8,51.8,29.81,SE,124,0.0,0.0,51,0.00,,,0.00,Wunderground v.1.15,2013-09-09 04:25:00,
2013-09-08 22:30:00,70.8,51.8,29.81,ESE,121,0.0,0.0,51,0.00,,,0.00,Wunderground v.1.15,2013-09-09 04:30:00,
2013-09-08 22:35:00,71.0,51.4,29.81,ESE,109,0.0,0.0,50,0.00,,,0.00,Wunderground v.1.15,2013-09-09 04:35:00,
2013-09-08 22:45:00,71.3,51.1,29.80,East,84,0.0,1.0,49,0.00,,,0.00,Wunderground v.1.15,2013-09-09 04:45:00,
2013-09-08 22:55:00,72.2,51.4,29.80,ESE,111,0.0,0.0,48,0.00,,,0.00,Wunderground v.1.15,2013-09-09 04:55:00,
2013-09-08 23:00:00,72.3,51.5,29.81,East,91,0.0,0.0,48,0.00,,,0.00,Wunderground v.1.15,2013-09-09 05:00:00,
2013-09-08 23:10:00,72.4,51.6,29.80,ESE,110,0.0,0.0,48,0.00,,,0.00,Wunderground v.1.15,2013-09-09 05:10:00,
2013-09-08 23:20:00,72.3,51.5,29.81,SE,129,0.0,0.0,48,0.00,,,0.00,Wunderground v.1.15,2013-09-09 05:20:00,
2013-09-08 23:30:00,72.1,51.3,29.81,SSE,159,0.0,1.0,48,0.00,,,0.00,Wunderground v.1.15,2013-09-09 05:30:00,
2013-09-08 23:40:00,72.3,50.9,29.81,East,80,1.0,1.0,47,0.00,,,0.00,Wunderground v.1.15,2013-09-09 05:40:00,
2013-09-08 23:50:00,71.8,51.0,29.81,West,267,0.0,0.0,48,0.00,,,0.00,Wunderground v.1.15,2013-09-09 05:50:00,
2013-09-08 23:55:00,71.6,51.4,29.81,West,276,0.0,0.0,49,0.00,,,0.00,Wunderground v.1.15,2013-09-09 05:55:00,